Simultaneous Nadir Overpasses (SNOs) Predictions

Prediction of SNOs between GOES-16 and METOP-C Satellite Orbit:

Table of predicted SNOs for the next 14.0 days since TLE Epoch: 4/26/2020
Index Date Time (GOES-16) GOES-16 Lat,Lon METOP-C Lat,Lon Distance(km) Time Diff (sec)
1 04/28/2020 02:47:46 -0.03, -75.16 -0.83, -78.60 392.40 80
2 04/29/2020 02:24:28 -0.03, -75.16 0.32, -73.61 176.74 80
3 04/30/2020 14:43:19 0.02, -75.19 0.70, -78.17 340.30 80
4 05/01/2020 14:25:19 0.02, -75.19 -0.40, -73.17 229.22 80
5 05/03/2020 02:44:22 -0.02, -75.18 -0.58, -77.78 296.09 80
6 05/04/2020 02:21:02 -0.02, -75.19 0.52, -72.79 273.81 80
7 05/05/2020 14:39:54 0.02, -75.22 0.49, -77.35 242.01 80
8 05/06/2020 14:21:54 0.02, -75.23 -0.60, -72.35 328.29 80
9 05/08/2020 02:40:56 -0.01, -75.23 -0.37, -76.96 195.99 80
10 05/09/2020 02:17:37 -0.01, -75.25 0.72, -71.96 374.40 80
11 05/10/2020 14:36:28 0.01, -75.29 0.29, -76.52 140.82 80




NCC Satellite Simultaneous Nadir Overpasses (SNOs) Prediction Service
